Location: Bittkow
(50.3000°N, 19.0000°E)
Time: 03:03:40
(UTC+00:00)

USA 307 - Pass Details

Date: 19 September 2020
Orbit: 567 x 582 km, 54.0° (Epoch: 19 October)

Event Time Altitude Azimuth Distance (km) Brightness Sun altitude
Exits shadow 02:52:28 28° 242° (WSW) 1,071 3.7 -15.4°
Maximum altitude 02:54:38 86° 157° (SSE) 574 2.8 -15.1°
Drops below altitude 10° 02:58:54 10° 67° (ENE) 1,870 7.0 -14.4°
Sets 03:01:09 0° 67° (ENE) 2,770 8.4 -14.1°
